Regional Weather Roundup
Issued by NWS Green Bay, WI

Home | Current Version | Previous Version | Text Only | Print | Product List | Glossary On
Versions: 1 2 3 4 5 6 7 8 9 10 11 12 13 14 15 16 17 18 19 20 21 22 23 24 25 26 27 28 29 30 31 32 33 34 35 36 37 38 39 40 41 42 43 44 45 46 47 48 49 50
000
ASUS43 KGRB 300259
RWRGRB

NORTH-CENTRAL AND NORTHEAST WISCONSIN REGIONAL WEATHER ROUNDUP
NATIONAL WEATHER SERVICE GREEN BAY WI
1000 PM CDT FRI AUG 29 2014

WIZ005-009-010>012-018-019-300400-
NORTH CENTRAL WISCONSIN

CITY           SKY/WX    TMP DP  RH WIND       PRES   REMARKS
IRONWOOD       NOT AVBL
MANITOWISH WTR NOT AVBL
ARBOR VITAE    NOT AVBL
EAGLE RIVER    NOT AVBL
LAND O LAKES   NOT AVBL
RHINELANDER    LGT RAIN  64  63  96 SE5       29.83F
PHILLIPS       NOT AVBL
ANTIGO         NOT AVBL
TOMAHAWK       NOT AVBL
MERRILL        NOT AVBL
$$

WIZ013-073-300400-
NORTHEAST WISCONSIN

CITY           SKY/WX    TMP DP  RH WIND       PRES   REMARKS
IRON MOUNTAIN  LGT RAIN  68  64  87 S8        29.84R FOG
MARINETTE      CLOUDY    73  68  83 SW3       29.82S
$$

WIZ017-030-035>037-045-300400-
CENTRAL WISCONSIN

CITY           SKY/WX    TMP DP  RH WIND       PRES   REMARKS
MEDFORD        NOT AVBL
WAUSAU         TSTM      66  65  96 E7        29.82S FOG
MOSINEE        TSTM      66  64  94 E3        29.85R
MARSHFIELD     LGT RAIN  67  65  93 CALM      29.81F
WISC RAPIDS    TSTM      67  66  97 CALM      29.83S FOG
STEVENS POINT  NOT AVBL
WAUPACA        NOT AVBL
SHAWANO        MOCLDY    75  69  81 NW8       29.83R
CLINTONVILLE   NOT AVBL
$$

WIZ038-039-048-051-300400-
FOX VALLEY

CITY           SKY/WX    TMP DP  RH WIND       PRES   REMARKS
NWS GREEN BAY  MOCLDY    73  71  93 S8        29.82S
APPLETON       MOCLDY    73  72  94 SE8       29.82F
OSHKOSH        MOCLDY    73  71  93 S8        29.82S
FOND DU LAC    MOCLDY    73  70  90 S6        29.83F
$$

WIZ022-050-052-300400-
EAST CENTRAL WISCONSIN

CITY           SKY/WX    TMP DP  RH WIND       PRES   REMARKS
STURGEON BAY   CLOUDY    70  66  88 S15G23    29.84S
MANITOWOC      NOT AVBL
SHEBOYGAN      PTCLDY    73  70  90 S9        29.85F FOG
$$

LMZ563-521-522-541>543-300400-
LAKESHORE

STATION/POSITION TIME  TEMP    WIND        PRES    VSBY  WAVE
                       AIR SEA DIR/SP/G                  HT/PER
                 (UTC) (F)     (DEG/KT/KT) (MB)    (MI)  (FT/S)
SHEBOYGAN LKSHOR 0200   69 63  180/ 16/ 17 1011.0F
KEWAUNEE LKSHORE 0200   65     180/ 10/ 12 1009.9F
NORTHPORT PIER   0200   68     160/ 10/ 16 1010.2S
N MID LAKE BUOY  0200   69 65  180/ 17/ 21 1009.9F         4/ 6
CHAMBERS ISLAND  0200   72     140/  7/ 13 1010.2R
MENOMINEE LKSHOR 0200   71     160/  9/ 12 1010.4R
$$


USA.gov is the U.S. government's official web portal to all federal, state and local government web resources and services.